Hourly Data Report for October 28, 2013

All times are specified in Local Standard Time (LST). Add 1 hour to adjust for Daylight Saving Time where and when it is observed.

CAPE DORSET A
NUNAVUT

64°13'49.000" N
76°31'30.000" W
48.20 m
2400637
71366
YTE

Download Data

Hourly Data (October 2013)
Hourly Data Report for October 28, 2013
Temp Definition
°C
Dew Point Temp Definition
°C
Rel Hum Definition
%
Wind Dir Definition
10's deg

Wind Spd Definition
km/h
Visibility Definition
km
Stn Press Definition
kPa
Hmdx Definition


Wind Chill Definition


Weather Definition


TIME
00:00 Legend Double Dagger -9.0 -11.4 83 29 5 16.1 99.62   -12 LegendNANA
01:00 Legend Double Dagger -8.6 -10.7 85 29 9 16.1 99.60   -13 LegendNANA
02:00 Legend Double Dagger -8.8 -10.8 85 33 9 16.1 99.60   -13 LegendNANA
03:00 Legend Double Dagger -9.4 -11.7 84 32 11 16.1 99.57   -15 LegendNANA
04:00 Legend Double Dagger -9.8 -12.0 84 35 13 16.1 99.58   -16 LegendNANA
05:00 Legend Double Dagger -9.5 -13.1 75 34 17 16.1 99.58   -17 LegendNANA
06:00 Legend Double Dagger -9.4 -13.4 73 33 21 16.1 99.57   -17 LegendNANA
07:00 Legend Double Dagger -9.4 -13.5 73 33 21 16.1 99.57   -17 LegendNANA
08:00 Legend Double Dagger -10.1 -14.0 73 27 15 16.1 99.55   -17 LegendNANA
09:00 Legend Double Dagger -10.9 -14.6 75 28 15 16.1 99.56   -18 LegendNANA
10:00 Legend Double Dagger -11.8 -15.2 76 25 8 16.1 99.55   -17 LegendNANA
11:00 Legend Double Dagger -11.1 -14.4 77 26 9 16.1 99.54   -16 LegendNANA
12:00 Legend Double Dagger -10.5 -13.7 78 28 17 16.1 99.49   -18 LegendNANA
13:00 Legend Double Dagger -9.8 -13.1 77 28 21 16.1 99.48   -18 LegendNANA
14:00 Legend Double Dagger -9.0 -13.2 72 29 21 16.1 99.48   -17 LegendNANA
15:00 Legend Double Dagger -9.8 -13.6 74 30 18 16.1 99.48   -17 LegendNANA
16:00 Legend Double Dagger -10.3 -13.0 81 29 18 16.1 99.49   -18 LegendNANA
17:00 Legend Double Dagger -10.7 -13.5 80 27 18 16.1 99.51   -18 LegendNANA
18:00 Legend Double Dagger -11.3 -13.8 82 28 17 16.1 99.53   -19 LegendNANA
19:00 Legend Double Dagger -11.2 -14.4 77 29 17 16.1 99.54   -19 LegendNANA
20:00 Legend Double Dagger -12.1 -14.9 80 28 17 16.1 99.54   -20 LegendNANA
21:00 Legend Double Dagger -12.3 -15.2 79 27 13 16.1 99.54   -19 LegendNANA
22:00 Legend Double Dagger -13.0 -16.2 77 25 11 16.1 99.54   -19 LegendNANA
23:00 Legend Double Dagger -12.8 -15.4 81 26 9 16.1 99.52   -18 LegendNANA

Notes on Data Quality.

Legend

  • E = Estimated
  • M = Missing
  • NA = Not Available
  • ‡ = Partner data that is not subject to review by the National Climate Archives
Date modified: